W2JV-2 Weather Reports


Display with metric or nautical units.
time (UTC)temp
F
wind
direction
speed
MPH
gust
MPH
rain 1hr
in
rain 24hr
in
rain mn
in
humidity
%
barometer
mb
20260906113003 62 191 0.0 1.0 0.00 0.16 0.10 88 1013.7
20260906112003 62 182 0.0 0.0 0.00 0.16 0.10 88 1013.6
20260906111003 61 182 0.0 0.0 0.00 0.16 0.10 87 1013.5
20260906110503 61 182 0.0 0.0 0.00 0.16 0.10 87 1013.5
20260906110003 61 182 0.0 0.0 0.00 0.16 0.10 87 1013.4
20260906105503 61 182 0.0 0.0 0.00 0.16 0.10 87 1013.3
20260906105003 61 182 0.0 0.0 0.00 0.16 0.10 87 1013.1
20260906104004 61 182 0.0 0.0 0.00 0.16 0.10 87 1012.9
20260906103503 62 182 0.0 0.0 0.00 0.16 0.10 87 1013.0
20260906103003 62 182 0.0 0.0 0.00 0.16 0.10 87 1013.0
20260906102503 62 182 0.0 0.0 0.00 0.16 0.10 87 1013.1
20260906102003 62 182 0.0 0.0 0.00 0.16 0.10 87 1013.0
20260906101503 62 182 0.0 0.0 0.00 0.16 0.10 87 1012.9
20260906100003 62 182 0.0 0.0 0.00 0.16 0.10 87 1012.9
20260906095503 62 182 0.0 0.0 0.00 0.16 0.10 88 1012.9
20260906095004 62 182 0.0 0.0 0.00 0.16 0.10 87 1012.8
20260906094504 62 182 0.0 0.0 0.00 0.16 0.10 87 1012.8
20260906094003 62 182 0.0 0.0 0.00 0.16 0.10 87 1012.7
20260906093003 62 182 0.0 0.0 0.00 0.16 0.10 87 1012.7
20260906092503 62 182 0.0 0.0 0.00 0.16 0.10 87 1012.6
20260906091504 62 182 0.0 0.0 0.00 0.16 0.10 87 1012.4
20260906090503 62 182 0.0 0.0 0.00 0.16 0.10 86 1012.3
20260906084004 63 193 0.0 0.0 0.00 0.16 0.10 87 1012.0
20260906083004 63 261 0.0 0.0 0.00 0.16 0.10 87 1012.0
20260906082503 63 261 0.0 0.0 0.00 0.16 0.10 87 1012.1
20260906082003 63 261 0.0 0.0 0.00 0.16 0.10 87 1012.0
20260906081003 63 256 0.0 0.0 0.00 0.16 0.10 86 1012.2
20260906075504 64 290 0.0 0.0 0.00 0.16 0.10 86 1012.1
20260906075003 64 290 0.0 0.0 0.00 0.16 0.10 86 1012.2
20260906074503 64 290 0.0 0.0 0.00 0.16 0.10 86 1012.2
20260906074004 64 290 0.0 0.0 0.00 0.16 0.10 86 1012.2
20260906073503 64 290 0.0 0.0 0.00 0.16 0.10 86 1012.1
20260906073003 64 290 0.0 0.0 0.00 0.16 0.10 86 1011.9
20260906072504 64 290 0.0 0.0 0.00 0.16 0.10 86 1011.9
20260906072003 64 272 0.0 0.0 0.00 0.16 0.10 86 1011.9
20260906071503 64 272 0.0 0.0 0.00 0.16 0.10 86 1011.9
20260906071003 64 317 0.0 0.0 0.00 0.16 0.10 86 1011.9
20260906070003 65 317 0.0 0.0 0.00 0.16 0.10 86 1011.9
20260906065503 65 359 0.0 0.0 0.00 0.16 0.10 86 1011.9
20260906064503 65 359 0.0 0.0 0.00 0.16 0.10 86 1012.0
20260906063505 65 285 0.0 0.0 0.00 0.16 0.10 86 1011.9
20260906063004 66 266 0.0 0.0 0.00 0.16 0.10 86 1011.9
20260906062503 66 288 0.0 0.0 0.00 0.16 0.10 86 1012.0
20260906062003 66 5 0.0 0.0 0.00 0.16 0.10 86 1012.1
20260906061503 66 5 0.0 0.0 0.00 0.16 0.10 85 1012.1
20260906061005 66 6 0.0 0.0 0.00 0.16 0.10 86 1012.2
20260906060504 66 252 0.0 0.0 0.00 0.16 0.10 86 1012.3
20260906060004 67 252 0.0 0.0 0.00 0.16 0.10 86 1012.3
20260906055504 67 148 0.0 0.0 0.00 0.16 0.10 86 1012.3
20260906055003 67 253 0.0 0.0 0.01 0.16 0.10 86 1012.3
20260906054503 67 253 0.0 0.0 0.01 0.16 0.10 85 1012.3
20260906054004 67 253 0.0 0.0 0.01 0.16 0.10 85 1012.2
20260906053503 67 253 0.0 0.0 0.01 0.16 0.10 85 1012.1
20260906053004 67 253 0.0 0.0 0.02 0.16 0.10 85 1012.1
20260906052503 67 253 0.0 0.0 0.04 0.16 0.10 84 1012.1
20260906052003 67 253 0.0 0.0 0.05 0.16 0.10 84 1012.1
20260906051503 67 253 0.0 0.0 0.08 0.16 0.10 83 1012.1
20260906051003 67 253 0.0 0.0 0.09 0.16 0.10 83 1012.2
20260906050503 67 253 0.0 0.0 0.09 0.16 0.10 83 1012.2
20260906050003 67 114 0.0 0.0 0.10 0.16 0.10 82 1012.3
20260906045504 67 177 0.0 0.0 0.04 0.16 0.10 82 1012.3
20260906045004 67 219 0.0 1.0 0.04 0.15 0.09 81 1012.2
20260906044504 67 219 0.0 1.0 0.09 0.15 0.09 80 1012.2
20260906044004 67 209 0.0 2.0 0.09 0.15 0.09 80 1012.1
20260906043504 67 189 0.0 0.0 0.09 0.15 0.09 79 1012.2
20260906043003 68 190 0.0 0.0 0.08 0.14 0.08 78 1012.3
20260906042504 68 49 0.0 0.0 0.06 0.12 0.06 78 1012.4
20260906042003 68 278 0.0 0.0 0.05 0.11 0.05 77 1012.4
20260906041503 68 278 0.0 0.0 0.02 0.08 0.02 77 1012.4
20260906041003 68 278 0.0 0.0 0.01 0.07 0.01 76 1012.4
20260906040003 68 300 0.0 2.0 0.00 0.06 0.00 75 1012.3
20260906035504 68 15 0.0 3.0 0.06 0.06 0.06 74 1012.2
20260906035003 68 128 0.0 2.0 0.05 0.05 0.05 74 1012.1
20260906034503 68 111 1.0 3.0 0.00 0.00 0.00 74 1012.1
20260906034005 68 284 0.0 0.0 0.00 0.00 0.00 74 1012.0
20260906033505 68 209 0.0 0.0 0.00 0.00 0.00 74 1012.0
20260906033004 68 276 0.0 0.0 0.00 0.00 0.00 74 1012.0
20260906032503 68 259 0.0 0.0 0.00 0.00 0.00 74 1012.0
20260906032003 68 277 0.0 0.0 0.00 0.00 0.00 74 1011.8
20260906031503 68 277 0.0 0.0 0.00 0.00 0.00 74 1011.6
20260906031003 68 277 0.0 0.0 0.00 0.00 0.00 73 1011.6
20260906030504 68 277 0.0 0.0 0.00 0.00 0.00 73 1011.7
20260906030004 68 277 0.0 0.0 0.00 0.00 0.00 73 1011.8
20260906025504 68 275 0.0 0.0 0.00 0.00 0.00 73 1011.7
20260906025003 68 275 0.0 0.0 0.00 0.00 0.00 73 1011.7
20260906024504 68 275 0.0 0.0 0.00 0.00 0.00 73 1011.6
20260906024003 68 275 0.0 0.0 0.00 0.00 0.00 72 1011.6
20260906023504 69 275 0.0 0.0 0.00 0.00 0.00 72 1011.7
20260906023003 69 275 0.0 0.0 0.00 0.00 0.00 72 1011.7
20260906022505 69 275 0.0 0.0 0.00 0.00 0.00 72 1011.6
20260906022005 69 275 0.0 0.0 0.00 0.00 0.00 72 1011.6
20260906021504 69 275 0.0 0.0 0.00 0.00 0.00 71 1011.6
20260906021004 69 275 0.0 1.0 0.00 0.00 0.00 71 1011.6
20260906020503 69 275 0.0 1.0 0.00 0.00 0.00 71 1011.5
20260906020004 69 275 0.0 2.0 0.00 0.00 0.00 71 1011.6
20260906015503 69 284 0.0 0.0 0.00 0.00 0.00 71 1011.5
20260906015003 70 282 0.0 1.0 0.00 0.00 0.00 71 1011.5
20260906014503 70 280 1.0 2.0 0.00 0.00 0.00 70 1011.4
20260906014004 70 188 1.0 3.0 0.00 0.00 0.00 70 1011.4
20260906013503 70 140 2.0 5.0 0.00 0.00 0.00 70 1011.5
20260906013003 70 233 0.0 1.0 0.00 0.00 0.00 70 1011.4
20260906012503 70 166 0.0 0.0 0.00 0.00 0.00 70 1011.3
20260906012004 70 272 1.0 3.0 0.00 0.00 0.00 70 1011.3
20260906011503 71 172 0.0 1.0 0.00 0.00 0.00 70 1011.2
20260906011003 71 172 0.0 1.0 0.00 0.00 0.00 70 1011.1
20260906010504 71 172 0.0 2.0 0.00 0.00 0.00 70 1011.1
20260906005503 71 245 0.0 2.0 0.00 0.00 0.00 70 1011.1
20260906005003 71 135 0.0 2.0 0.00 0.00 0.00 70 1011.0
20260906004503 71 159 1.0 2.0 0.00 0.00 0.00 70 1011.0
20260906004004 71 228 0.0 1.0 0.00 0.00 0.00 70 1011.0
20260906003504 71 228 0.0 1.0 0.00 0.00 0.00 70 1010.8
20260906003003 71 213 0.0 2.0 0.00 0.00 0.00 70 1010.7
20260906002505 71 249 0.0 0.0 0.00 0.00 0.00 70 1010.6
20260906001004 71 300 0.0 0.0 0.00 0.00 0.00 69 1010.2
20260906000504 71 327 0.0 0.0 0.00 0.00 0.00 69 1010.2
20260906000004 71 9 0.0 0.0 0.00 0.00 0.00 69 1010.2
20260905235503 71 9 0.0 0.0 0.00 0.00 0.00 69 1010.2
20260905235004 71 36 0.0 0.0 0.00 0.00 0.00 69 1010.1
20260905234504 71 36 0.0 0.0 0.00 0.00 0.00 69 1010.1
20260905234004 72 36 0.0 0.0 0.00 0.00 0.00 69 1010.2
20260905233503 72 36 0.0 0.0 0.00 0.00 0.00 69 1010.1
20260905233003 72 36 0.0 0.0 0.00 0.00 0.00 68 1010.1
20260905232505 72 36 0.0 0.0 0.00 0.00 0.00 68 1010.1
20260905231504 72 36 0.0 0.0 0.00 0.00 0.00 68 1010.0
20260905230503 73 36 0.0 0.0 0.00 0.00 0.00 68 1009.9
20260905230003 73 36 0.0 0.0 0.00 0.00 0.00 67 1009.9
20260905225004 73 36 0.0 0.0 0.00 0.00 0.00 67 1009.9
20260905224504 73 36 0.0 0.0 0.00 0.00 0.00 67 1009.9
20260905224004 74 36 0.0 0.0 0.00 0.00 0.00 66 1009.9
20260905223504 74 36 0.0 0.0 0.00 0.00 0.00 66 1009.8
20260905223004 74 36 0.0 0.0 0.00 0.00 0.00 67 1009.9
20260905222504 74 36 0.0 0.0 0.00 0.00 0.00 67 1010.0
20260905222004 74 36 0.0 0.0 0.00 0.00 0.00 67 1009.9
20260905221504 74 36 0.0 0.0 0.00 0.00 0.00 67 1009.8
20260905221004 74 36 0.0 0.0 0.00 0.00 0.00 67 1009.8
20260905220504 74 36 0.0 0.0 0.00 0.00 0.00 65 1009.7
20260905214004 75 36 0.0 0.0 0.00 0.00 0.00 65 1009.8
20260905213504 75 36 0.0 0.0 0.00 0.00 0.00 63 1009.6
20260905213004 75 36 0.0 0.0 0.00 0.00 0.00 63 1009.7
20260905212503 75 36 0.0 0.0 0.00 0.00 0.00 63 1009.6
20260905212003 75 36 0.0 0.0 0.00 0.00 0.00 63 1009.6
20260905211503 75 36 0.0 0.0 0.00 0.00 0.00 63 1009.6
20260905211003 76 36 0.0 0.0 0.00 0.00 0.00 62 1009.5
20260905210504 76 36 0.0 0.0 0.00 0.00 0.00 62 1009.5
20260905210005 76 36 0.0 0.0 0.00 0.00 0.00 62 1009.5
20260905205504 77 37 0.0 0.0 0.00 0.00 0.00 61 1009.4
20260905204504 77 42 0.0 0.0 0.00 0.00 0.00 60 1009.3
20260905204003 77 42 0.0 0.0 0.00 0.00 0.00 60 1009.3
20260905203504 78 42 0.0 0.0 0.00 0.00 0.00 58 1009.2
20260905203004 78 42 0.0 0.0 0.00 0.00 0.00 58 1009.2
20260905202504 79 42 0.0 0.0 0.00 0.00 0.00 56 1009.2
20260905202004 79 47 0.0 0.0 0.00 0.00 0.00 56 1009.1
20260905201504 79 349 0.0 3.0 0.00 0.00 0.00 53 1009.1
20260905200503 79 33 2.0 3.0 0.00 0.00 0.00 55 1009.1
20260905200003 79 43 3.0 6.0 0.00 0.00 0.00 57 1009.1
20260905195503 79 13 1.0 3.0 0.00 0.00 0.00 58 1009.1
20260905195004 79 48 0.0 2.0 0.00 0.00 0.00 57 1009.1
20260905194503 79 146 0.0 3.0 0.00 0.00 0.00 58 1009.1
20260905193503 79 356 1.0 3.0 0.00 0.00 0.00 57 1009.1
20260905193003 79 347 1.0 3.0 0.00 0.00 0.00 57 1009.2
20260905192505 79 3 2.0 3.0 0.00 0.00 0.00 57 1009.2
20260905192004 79 7 1.0 3.0 0.00 0.00 0.00 55 1009.3
20260905191504 79 357 1.0 3.0 0.00 0.00 0.00 57 1009.4
20260905191003 79 294 1.0 3.0 0.00 0.00 0.00 60 1009.3
20260905190504 79 318 1.0 3.0 0.00 0.00 0.00 58 1009.4
20260905190004 79 20 1.0 3.0 0.00 0.00 0.00 59 1009.4
20260905185505 79 17 1.0 3.0 0.00 0.00 0.00 57 1009.4
20260905185004 79 312 2.0 5.0 0.00 0.00 0.00 58 1009.4
20260905184504 78 301 0.0 3.0 0.00 0.00 0.00 59 1009.3
20260905184004 78 32 2.0 3.0 0.00 0.00 0.00 58 1009.4
20260905183503 78 32 3.0 6.0 0.00 0.00 0.00 57 1009.5
20260905183004 78 340 0.0 3.0 0.00 0.00 0.00 59 1009.5
20260905182503 78 323 1.0 3.0 0.00 0.00 0.00 58 1009.6
20260905182003 78 272 1.0 2.0 0.00 0.00 0.00 61 1009.5
20260905181503 78 227 0.0 1.0 0.00 0.00 0.00 58 1009.5
20260905181005 78 42 1.0 3.0 0.00 0.00 0.00 57 1009.6
20260905180504 78 296 1.0 3.0 0.00 0.00 0.00 60 1009.7
20260905180003 77 163 0.0 3.0 0.00 0.00 0.00 61 1009.8
20260905175503 77 332 0.0 2.0 0.00 0.00 0.00 60 1009.8
20260905175003 77 39 0.0 2.0 0.00 0.00 0.00 60 1009.8
20260905174004 77 52 1.0 3.0 0.00 0.00 0.00 63 1009.8
20260905173504 76 15 0.0 2.0 0.00 0.00 0.00 61 1009.9
20260905173003 76 247 0.0 2.0 0.00 0.00 0.00 61 1009.9
20260905172504 77 337 0.0 2.0 0.00 0.00 0.00 64 1009.9
20260905171504 76 5 0.0 0.0 0.00 0.00 0.00 63 1009.9
20260905171003 76 19 0.0 0.0 0.00 0.00 0.00 65 1010.0
20260905170505 75 27 0.0 0.0 0.00 0.00 0.00 65 1010.0
20260905170004 76 313 0.0 0.0 0.00 0.00 0.00 64 1010.0
20260905165503 76 311 0.0 0.0 0.00 0.00 0.00 65 1010.1
20260905165003 76 342 0.0 0.0 0.00 0.00 0.00 67 1010.1
20260905164503 76 342 0.0 0.0 0.00 0.00 0.00 66 1010.1
20260905163504 76 323 0.0 0.0 0.00 0.00 0.00 63 1010.1
20260905163004 77 4 0.0 0.0 0.00 0.00 0.00 64 1010.1
20260905162503 77 349 0.0 2.0 0.00 0.00 0.00 64 1009.9
20260905162003 76 8 0.0 2.0 0.00 0.00 0.00 66 1009.9
20260905161502 76 350 1.0 5.0 0.00 0.00 0.00 65 1010.0
20260905161002 76 279 0.0 3.0 0.00 0.00 0.00 65 1009.9
20260905160502 75 49 2.0 3.0 0.00 0.00 0.00 67 1010.0
20260905160003 75 11 0.0 3.0 0.00 0.00 0.00 66 1010.0
20260905155502 75 311 0.0 2.0 0.00 0.00 0.00 67 1009.9
20260905154502 75 342 1.0 2.0 0.00 0.00 0.00 67 1010.1
20260905154002 75 27 0.0 3.0 0.00 0.00 0.00 65 1010.0
20260905153501 75 29 1.0 3.0 0.00 0.00 0.00 66 1010.0
20260905153002 74 5 2.0 5.0 0.00 0.00 0.00 67 1010.0
20260905152502 74 324 1.0 2.0 0.00 0.00 0.00 68 1010.0
20260905152002 74 354 0.0 3.0 0.00 0.00 0.00 68 1010.0
20260905151502 73 290 1.0 5.0 0.00 0.00 0.00 69 1010.0
20260905151002 73 330 0.0 3.0 0.00 0.00 0.00 69 1010.0
20260905150501 73 3 0.0 3.0 0.00 0.00 0.00 68 1010.0
20260905145502 73 53 2.0 3.0 0.00 0.00 0.00 68 1009.9
20260905145002 73 3 1.0 3.0 0.00 0.00 0.00 68 1010.0
20260905144502 73 340 1.0 3.0 0.00 0.00 0.00 69 1010.1
20260905144003 73 42 1.0 3.0 0.00 0.00 0.00 68 1010.1
20260905143503 73 35 1.0 2.0 0.00 0.00 0.00 69 1010.1
20260905143003 72 318 1.0 3.0 0.00 0.00 0.00 69 1010.0
20260905142504 72 321 1.0 3.0 0.00 0.00 0.00 70 1010.0
20260905141002 71 352 1.0 3.0 0.00 0.00 0.00 70 1010.0
20260905140502 71 300 0.0 3.0 0.00 0.00 0.00 69 1009.9
20260905140002 71 354 0.0 2.0 0.00 0.00 0.00 70 1010.0
20260905135502 71 356 1.0 7.0 0.00 0.00 0.00 70 1009.9
20260905135002 71 349 1.0 3.0 0.00 0.00 0.00 70 1009.9
20260905134502 70 2 1.0 3.0 0.00 0.00 0.00 70 1009.9
20260905134002 70 354 1.0 3.0 0.00 0.00 0.00 70 1010.0
20260905133002 70 44 0.0 2.0 0.00 0.00 0.00 70 1010.1
20260905132503 70 6 1.0 3.0 0.00 0.00 0.00 71 1010.2
20260905132002 70 311 0.0 3.0 0.00 0.00 0.00 71 1010.1
20260905131502 70 343 0.0 2.0 0.00 0.00 0.00 72 1010.2
20260905131003 70 3 0.0 2.0 0.00 0.00 0.00 72 1010.2
20260905130502 69 283 1.0 2.0 0.00 0.00 0.00 72 1010.3
20260905130002 69 12 1.0 2.0 0.00 0.00 0.00 72 1010.3
20260905125502 69 37 1.0 2.0 0.00 0.00 0.00 72 1010.3
20260905125003 69 349 1.0 2.0 0.00 0.00 0.00 72 1010.3
20260905124503 69 39 1.0 3.0 0.00 0.00 0.00 72 1010.3
20260905124002 69 333 1.0 3.0 0.00 0.00 0.00 72 1010.3
20260905123503 69 343 1.0 6.0 0.00 0.00 0.00 73 1010.3
20260905123002 69 31 2.0 3.0 0.00 0.00 0.00 73 1010.3
20260905122504 68 17 1.0 3.0 0.00 0.00 0.00 73 1010.4
20260905122002 68 2 0.0 0.0 0.00 0.00 0.00 73 1010.5
20260905121002 68 17 0.0 0.0 0.00 0.00 0.00 74 1010.4
20260905120503 68 47 1.0 2.0 0.00 0.00 0.00 74 1010.3
20260905120003 68 28 1.0 2.0 0.00 0.00 0.00 74 1010.3
20260905115504 68 8 1.0 3.0 0.00 0.00 0.00 74 1010.2
20260905115002 67 19 2.0 3.0 0.00 0.00 0.00 74 1010.1
20260905114502 67 61 1.0 2.0 0.00 0.00 0.00 74 1010.1
20260905114003 67 36 0.0 0.0 0.00 0.00 0.00 74 1010.0